Location: Norderney
(53.7000°N, 7.1500°E)
Time: 08:46:18
(UTC+02:00)

X-37B - Pass Details

Date: 29 June 2021
Orbit: 383 x 392 km, 45.0° (Epoch: 01 July)

Event Time Altitude Azimuth Distance (km) Brightness Sun altitude
Rises 00:03:47 0° 254° (WSW) 2,258 4.5 -10.6°
Reaches altitude 10° 00:06:33 10° 228° (SW) 1,402 3.2 -10.7°
Maximum altitude 00:08:17 14° 194° (SSW) 1,189 2.5 -10.8°
Enters shadow 00:08:22 14° 192° (SSW) 1,190 2.5 -10.8°
